Miscellaneous Local Product
Issued by NWS North Platte, NE

Home | Current Version | Previous Version | Text Only | Print | Product List | Glossary On
Versions: 1 2 3 4 5 6 7 8 9 10 11 12 13 14 15 16 17 18 19 20 21 22 23 24 25 26 27 28 29 30 31 32 33 34 35 36 37 38 39 40 41 42 43 44 45 46 47 48 49 50
000
AXUS43 KLBF 251410
MISLBF


WESTERN AND NORTH CENTRAL NEBRASKA HOURLY WEATHER ROUNDUP
NATIONAL WEATHER SERVICE NORTH PLATTE NE
900 AM CDT FRI JUL 25 2014

***STATIONS NOT REPORTING VARIABLES SUCH AS SKY/WEATHER OR
PRESSURE ARE PROVIDED BY THE NEBRASKA DEPARTMENT OF
ROADS...RAWS...AND APRS NETWORKS...AND ARE NOT UNDER
NATIONAL WEATHER SERVICE QUALITY CONTROL***

...OBSERVATIONS IN AND NEAR THE EASTERN PANHANDLE OF NEBRASKA...

CITY           SKY/WX    TMP DP  RH WIND       PRES   REMARKS
PINE RIDGE     SUNNY     68  41  37 N13G20    30.00R
CHADRON        SUNNY     71  41  33 N7        30.01R
ALLIANCE       SUNNY     69  43  38 N14G23    30.02R
SIDNEY         MOSUNNY   73  57  57 N24G31    30.03R
WHITECLAY        N/A     68  42  38 NW12        N/A
RUSHVILLE        N/A     69  35  29 SE22        N/A
GORDON           N/A     69  46  42 W22         N/A
CRESCENT LAKE    N/A     69  54  58 N16G28      N/A
LISCO            N/A     76  49  38 W14         N/A
BIG SPRINGS      N/A     69  59  69 W5          N/A
$$

...OBSERVATIONS IN NORTH CENTRAL NEBRASKA...

CITY           SKY/WX    TMP DP  RH WIND       PRES   REMARKS
VALENTINE      PTSUNNY   72  64  76 NW18G26   29.89R
THEDFORD       SUNNY     74  63  68 NW15G23   29.89R
AINSWORTH      MOSUNNY   73  64  74 NW18G25   29.85R
O`NEILL        SUNNY     76  67  73 CALM      29.77R
ORD            SUNNY     76  70  82 CALM      29.77R
BROKEN BOW     SUNNY     79  61  53 NW18G26   29.81R
BROWNLEE         N/A     75  65  70 W22         N/A
SPRINGVIEW       N/A     74  65  74 NW10        N/A
DUNNING          N/A     74  68  80 N15         N/A
ROSE             N/A     78  70  77 W18         N/A
NEWPORT          N/A     76  66  71 W14         N/A
SARGENT          N/A     77  64  64 CALM        N/A
COMSTOCK         N/A     84  73  70 W9          N/A  HX  91
CHAMBERS         N/A     82  69  64 N9          N/A
$$

...OBSERVATIONS IN SOUTHWEST NEBRASKA AND FAR NORTHEAST COLORADO...

CITY           SKY/WX    TMP DP  RH WIND       PRES   REMARKS
WRAY             N/A     77  56  48 W7        29.96R
HOLYOKE        FAIR      77  59  53 N18       29.96R
IMPERIAL       MOSUNNY   76  57  51 N15       29.91R
OGALLALA       SUNNY     73  60  63 N5        29.93R
NORTH PLATTE   SUNNY     74  60  61 NW12      29.86R
MCCOOK         SUNNY     77  59  53 W7        29.85R
LEXINGTON      SUNNY     79  65  60 CALM      29.82R
PAXTON           N/A     65  60  85 W3          N/A
SUTHERLAND       N/A     78  70  74 E8          N/A
BRADY            N/A     74  62  66 S3          N/A
GOTHENBURG       N/A     74  58  56 W3          N/A
CALLAWAY         N/A     69  65  86 W10         N/A
$$

...SOME WEATHER OBSERVATIONS FROM AROUND THE REGION...

CITY           SKY/WX    TMP DP  RH WIND       PRES   REMARKS
DENVER         PTSUNNY   76  49  38 SW8       30.10R
LARAMIE        PTSUNNY   67  44  43 SW8       30.24S
CHEYENNE       PTSUNNY   71  50  47 E8        30.14R
SCOTTSBLUFF    SUNNY     69  58  67 NW7       30.04R
RAPID CITY     SUNNY     68  42  38 N14       30.00R
PIERRE         SUNNY     74  66  76 N17       29.82R
WINNER         FAIR      77  66  68 N14       29.82R
SIOUX FALLS    MOSUNNY   69  62  78 SE18G26   29.76F
OMAHA          MOSUNNY   75  63  66 SE14      29.82R
GRAND ISLAND   PTSUNNY   83  66  56 SW14      29.78R
KANSAS CITY    PTSUNNY   77  70  79 S21       29.87F
WICHITA        MOSUNNY   80  67  64 S18G26    29.91F
HAYS           SUNNY     75  63  64 SW15      29.85R
LIBERAL        SUNNY     82  61  47 SW23G30   29.97S
GOODLAND       MOSUNNY   79  58  48 W12       29.94R
$$



USA.gov is the U.S. government's official web portal to all federal, state and local government web resources and services.